OBJECT C, 63430

Orbit data source: Space-Track

You're viewing an Uncataloged Satellite

Recently launched and/or uncataloged satellites may have evolving metadata. Metadata may include but not limited to: Owner, Maufacturer, Bus, Motor, and Mission.

OBJECT C, 63430 is a satellite owned by Zhongguo Xingwang (CN) in LEO that was launched on Tue, 01 Apr 2025 UTC via a CHANG ZHENG 2D launch vehicle from the Jiuquan Satellite Launch Center, China (JSC). Unknown objects in Earth's orbit typically refer to objects detected orbiting the Earth but have not yet been identified or cataloged. These objects could be anything from previously untracked satellites, spent rocket stages, debris from satellite collisions, or even natural meteoroids temporarily captured by Earth's gravity.

Loading next visibility...
Identifier
63430, 2025-067C
Orbit
LEO
Last TLE update
8 hours ago
Origin
Manufacturer
Changguang WJ
Mission
Operational Civil Communications
Bus & Motor
Unknown
Mass
~300 kg wet, ~300 kg dry
Launch date (UTC)
2025-04-01 (1 month ago)
Launch vehicle
CHANG ZHENG 2D
Launch site
Jiuquan Satellite Launch Center, China (JSC)
Object type
Unknown
Shape & HBR
Box + 2 Pan, 2.5 m
Radar Cross Section
2.320 m², Large (>1 m²)

Expand to show TLE details & history

TLE from 8 hours ago
0 OBJECT C
1 63430U 25067C   25129.92153770  .00011159  00000-0  29902-3 0  9991
2 63430  54.9978  34.8849 0012744  42.1314 318.0692 15.38478442  5975
Epoch: 2025-05-09T22:07Z
Definitive object data (Epoch: 2025-05-09T22:07:00.857Z)
Latitude
0.00004°
Longitude
-164.83938°
Altitude
445.238 km
Speed
7.65 km/s
True Right ascension
02h 19m 32s
True Declination
0° 00' 00"
Sunlit
Object was in daylight at TLE epoch
Visualization TLE readout
Latitude
30.88876°
Longitude
-11.03542°
Altitude
453.871 km
Speed
7.643 km/s
Apparent Right ascension
08h 48m 25s
Apparent Declination
-10° 30' 15"
Sunlit
Object is in full shadow
Visualization observer readout
Local Sidereal Time
14:44:13
Azimuth
261.246° W
Elevation
-5.922°
Doppler factor
1
Orbital elements
Apogee altitude
459.273 km
Perigee altitude
441.868 km
Semi-major axis
6,828.708 km
Eccentricity
0.0012744
Inclination
54.9978°
RAAN
34.8849°
Arg. of periapsis
42.1314°
True anomaly
317.9715°
Mean anomaly
318.0692°
Eccentric anomaly
318.02036°
Mean motion
3.84623 °/min
BSTAR
0.00029902
Orbital period
93.6 mins
Loading maneuver chart data...
Loading SW <> Apogee altitude chart data...
Loading historical data...
Loading historical data...
Loading historical data...
Loading historical data...
Loading historical data...
Loading historical data...
Loading historical data...
Other satellites on launch #67 in the year 2025 (2025-04-01 UTC)

OBJECT C Visibility forecast

Observer location: undefined°, undefined°

Span
Click to sort rows by Start time (UTC) header in descending order
Start Az.
Max El. time (UTC)
Max El. Az.
Max El.
End time (UTC)
End Az.
6 mins2025-05-10 20:07:25.814Z225.114° WSW2025-05-10 20:10:25.814Z51.606° ENE43.408°2025-05-10 20:13:25.814Z47.319° ENE
4 mins2025-05-11 02:41:25.814Z344.585° N2025-05-11 02:43:25.814Z59.896° ENE31.322°2025-05-11 02:45:25.814Z102.854° ESE
4 mins2025-05-11 04:18:25.814Z266.118° W2025-05-11 04:20:25.814Z221.25° SW18.245°2025-05-11 04:22:25.814Z186.342° SSW
|